Weather History for K1A5 - February, 2014

Change the Weather History Date:

Thursday, February 13, 2014

  Actual Average (KAVL) Record (KAVL)
Temperature  
Mean Temperature 30 °F 40 °F  
Max Temperature 39 °F 51 °F 75 °F (1949)
Min Temperature 20 °F 29 °F 2 °F (1905)
Degree Days  
Heating Degree Days 35 25  
Month to date heating degree days 339  
Since 1 July heating degree days 2866  
Cooling Degree Days 0 0  
Month to date cooling degree days 0  
Year to date cooling degree days 0  
Moisture  
Dew Point 26 °F    
Average Humidity 82    
Maximum Humidity 98    
Minimum Humidity 61    
Precipitation  
Precipitation 0.00 in 0.13 in 2.79 in (1984)
Month to date precipitation 1.72  
Year to date precipitation 5.39  
Snow  
Snow 0.00 in 0.10 in 6.50 in (1960)
Month to date snowfall 1.1  
Since 1 July snowfall 6.2  
Snow Depth -    
Sea Level Pressure  
Sea Level Pressure 29.71 in    
Wind  
Wind Speed 2 mph (NW)    
Max Wind Speed 13 mph    
Max Gust Speed 23 mph    
Visibility 8 miles    
Events Fog , Snow    
T = Trace of Precipitation, MM = Missing Value Source: NWS Daily Summary

Daily Weather History Graph

Daily Weather History Graph

Search for Another Location

Airport or City:

Trip Planner

Search our weather history database for the weather conditions in past years. The results will help you decide how hot, cold, wet, or windy it might be!

Date:

Astronomy

Feb. 13, 2014 Rise Set
Actual Time 7:22 AM EST 6:14 PM EST
Civil Twilight 6:55 AM EST 6:40 PM EST
Nautical Twilight 6:26 AM EST 7:10 PM EST
Astronomical Twilight 5:56 AM EST 7:39 PM EST
Moon 5:21 PM EST (2/13) 6:14 AM EST (2/13)
Length of Visible Light 11h 44m
Length of Day
10h 52m
Waxing Gibbous, 98% of the Moon is Illuminated
Feb 13
Waxing Gibbous
Feb 14
Full
Feb 22
Last Quarter
Mar 1
New
Mar 8
First Quarter

Hourly Weather History & Observations

Time (EST) Temp. Windchill Dew Point Humidity Pressure Visibility Wind Dir Wind Speed Gust Speed Precip Events Conditions
12:15 AM 29.3 °F - 28.8 °F 98% 29.75 in 3.0 mi Calm Calm - N/A   Overcast
12:35 AM 29.7 °F - 28.9 °F 97% 29.73 in 4.0 mi Calm Calm - N/A   Overcast
12:55 AM 29.8 °F - 29.1 °F 97% 29.72 in 4.0 mi Calm Calm - N/A   Overcast
1:15 AM 29.5 °F - 28.8 °F 97% 29.71 in 4.0 mi Calm Calm - N/A Snow Light Snow
1:35 AM 29.5 °F - 28.9 °F 98% 29.70 in 4.0 mi Calm Calm - N/A   Overcast
1:55 AM 29.1 °F - 28.6 °F 98% 29.69 in 4.0 mi Calm Calm - N/A Snow Light Snow
2:15 AM 28.9 °F - 28.2 °F 97% 29.69 in 3.0 mi Calm Calm - N/A Snow Light Snow
2:35 AM 28.4 °F - 27.9 °F 98% 29.69 in 3.0 mi Calm Calm - N/A Snow Light Snow
2:55 AM 28.8 °F - 28.0 °F 97% 29.68 in 4.0 mi Calm Calm - N/A Snow Light Snow
3:15 AM 28.4 °F - 27.7 °F 97% 29.68 in 3.0 mi Calm Calm - N/A   Overcast
3:35 AM 27.5 °F - 27.0 °F 98% 29.66 in 0.2 mi Calm Calm - N/A Fog Light Freezing Fog
3:55 AM 26.4 °F - 25.7 °F 97% 29.66 in 0.2 mi Calm Calm - N/A Fog Light Freezing Fog
4:15 AM 26.6 °F - 25.7 °F 96% 29.65 in 2.0 mi Calm Calm - N/A   Overcast
4:35 AM 27.1 °F - 26.4 °F 97% 29.65 in 3.0 mi Calm Calm - N/A   Overcast
4:55 AM 27.5 °F - 27.0 °F 98% 29.64 in 4.0 mi Calm Calm - N/A   Overcast
5:15 AM 28.0 °F - 27.3 °F 97% 29.64 in 4.0 mi Calm Calm - N/A   Overcast
5:35 AM 27.9 °F - 27.1 °F 97% 29.64 in 3.0 mi Calm Calm - N/A   Overcast
5:55 AM 28.0 °F - 27.3 °F 97% 29.65 in 2.5 mi Calm Calm - N/A Snow Light Snow
6:15 AM 28.2 °F - 27.5 °F 97% 29.65 in 3.0 mi Calm Calm - N/A   Overcast
6:35 AM 28.4 °F - 27.9 °F 98% 29.65 in 4.0 mi Calm Calm - N/A   Overcast
6:55 AM 28.2 °F - 27.5 °F 97% 29.65 in 4.0 mi Calm Calm - N/A   Overcast
7:15 AM 28.4 °F - 27.5 °F 96% 29.65 in 3.0 mi Calm Calm - N/A   Overcast
7:35 AM 28.2 °F - 27.5 °F 97% 29.65 in 4.0 mi Calm Calm - N/A   Overcast
7:55 AM 30.6 °F - 29.8 °F 97% 29.65 in 10.0 mi Calm Calm - N/A   Overcast
8:15 AM 31.1 °F 26.4 °F 28.4 °F 90% 29.65 in 10.0 mi NW 4.6 mph - N/A   Mostly Cloudy
8:35 AM 31.3 °F - 27.3 °F 85% 29.66 in 10.0 mi Calm Calm - N/A   Overcast
8:55 AM 32.0 °F - 27.0 °F 82% 29.66 in 10.0 mi Calm Calm - N/A   Overcast
9:15 AM 32.0 °F 24.8 °F 26.4 °F 80% 29.66 in 10.0 mi NNW 8.1 mph - N/A   Mostly Cloudy
9:35 AM 32.2 °F 23.8 °F 25.7 °F 77% 29.66 in 10.0 mi NNW 10.4 mph - N/A   Scattered Clouds
9:55 AM 33.1 °F 26.1 °F 25.7 °F 74% 29.68 in 10.0 mi NNW 8.1 mph 21.9 mph N/A   Scattered Clouds
10:15 AM 32.2 °F 23.8 °F 25.0 °F 75% 29.68 in 10.0 mi NNW 10.4 mph 19.6 mph N/A   Mostly Cloudy
10:35 AM 33.1 °F 26.1 °F 25.3 °F 73% 29.70 in 10.0 mi NW 8.1 mph 17.3 mph N/A   Mostly Cloudy
10:55 AM 32.9 °F 24.7 °F 25.3 °F 74% 29.70 in 10.0 mi NNW 10.4 mph 18.4 mph N/A   Overcast
11:15 AM 34.9 °F 29.0 °F 25.2 °F 68% 29.70 in 10.0 mi NW 6.9 mph - N/A   Overcast
11:35 AM 35.8 °F 30.1 °F 25.7 °F 67% 29.70 in 10.0 mi NW 6.9 mph 17.3 mph N/A   Mostly Cloudy
11:55 AM 36.7 °F 28.9 °F 25.9 °F 65% 29.70 in 10.0 mi WNW 11.5 mph 18.4 mph N/A   Overcast
12:15 PM 37.4 °F 31.4 °F 26.4 °F 65% 29.70 in 10.0 mi North 8.1 mph 16.1 mph N/A   Overcast
12:35 PM 37.4 °F 30.8 °F 26.6 °F 65% 29.69 in 10.0 mi WNW 9.2 mph 17.3 mph N/A   Overcast
12:55 PM 38.3 °F 31.9 °F 27.1 °F 64% 29.69 in 10.0 mi NNW 9.2 mph 16.1 mph N/A   Scattered Clouds
1:15 PM 38.8 °F 33.2 °F 26.8 °F 62% 29.69 in 10.0 mi WNW 8.1 mph - N/A   Mostly Cloudy
1:35 PM 38.5 °F 35.0 °F 27.0 °F 63% 29.68 in 10.0 mi WNW 4.6 mph - N/A   Mostly Cloudy
1:55 PM 39.7 °F 32.3 °F 27.5 °F 62% 29.68 in 10.0 mi WNW 12.7 mph 17.3 mph N/A   Mostly Cloudy
2:35 PM 39.9 °F 32.9 °F 27.5 °F 61% 29.69 in 10.0 mi WNW 11.5 mph 16.1 mph N/A   Scattered Clouds
2:55 PM 39.0 °F 31.8 °F 27.1 °F 62% 29.70 in 10.0 mi WNW 11.5 mph 23.0 mph N/A   Mostly Cloudy
3:15 PM 37.4 °F 30.3 °F 27.3 °F 67% 29.70 in 10.0 mi WNW 10.4 mph 17.3 mph N/A   Overcast
3:35 PM 37.4 °F 30.8 °F 27.3 °F 67% 29.71 in 10.0 mi West 9.2 mph - N/A   Overcast
3:55 PM 37.0 °F 31.0 °F 27.3 °F 68% 29.72 in 10.0 mi WNW 8.1 mph - N/A   Overcast
4:15 PM 37.8 °F 31.3 °F 27.5 °F 67% 29.73 in 10.0 mi NW 9.2 mph 17.3 mph N/A   Overcast
4:35 PM 37.4 °F 32.8 °F 27.0 °F 66% 29.73 in 10.0 mi WNW 5.8 mph 20.7 mph N/A   Mostly Cloudy
4:55 PM 36.7 °F 31.2 °F 26.6 °F 67% 29.74 in 10.0 mi WNW 6.9 mph - N/A   Scattered Clouds
5:15 PM 36.9 °F 31.4 °F 26.4 °F 66% 29.75 in 10.0 mi WNW 6.9 mph - N/A   Clear
5:35 PM 36.9 °F 30.1 °F 25.3 °F 63% 29.76 in 10.0 mi NNW 9.2 mph - N/A   Clear
5:55 PM 36.3 °F 33.7 °F 24.3 °F 62% 29.77 in 10.0 mi NNW 3.5 mph - N/A   Clear
6:15 PM 35.6 °F 30.7 °F 24.1 °F 63% 29.77 in 10.0 mi NNW 5.8 mph - N/A   Clear
6:35 PM 35.2 °F - 23.4 °F 62% 29.77 in 10.0 mi Calm Calm - N/A   Clear
6:55 PM 35.1 °F - 23.2 °F 62% 29.77 in 10.0 mi Calm Calm - N/A   Clear
7:15 PM 35.1 °F - 23.4 °F 62% 29.78 in 10.0 mi Calm Calm - N/A   Clear
7:35 PM 31.8 °F 26.2 °F 23.9 °F 73% 29.78 in 10.0 mi North 5.8 mph - N/A   Clear
8:15 PM 30.2 °F - 24.1 °F 78% 29.79 in 10.0 mi Calm Calm - N/A   Clear
8:35 PM 27.7 °F - 24.1 °F 86% 29.80 in 10.0 mi Calm Calm - N/A   Clear
8:55 PM 27.3 °F - 24.1 °F 88% 29.80 in 10.0 mi Calm Calm - N/A   Clear
9:15 PM 26.1 °F - 23.2 °F 89% 29.80 in 10.0 mi Calm Calm - N/A   Clear
9:35 PM 25.7 °F - 23.2 °F 90% 29.80 in 10.0 mi Calm Calm - N/A   Clear
9:55 PM 25.2 °F - 22.6 °F 90% 29.80 in 10.0 mi Calm Calm - N/A   Clear
10:15 PM 24.4 °F - 22.1 °F 91% 29.81 in 10.0 mi Calm Calm - N/A   Clear
10:35 PM 23.0 °F - 21.0 °F 92% 29.81 in 10.0 mi Calm Calm - N/A   Clear
10:55 PM 23.0 °F - 21.4 °F 94% 29.81 in 10.0 mi Calm Calm - N/A   Clear
11:15 PM 21.6 °F - 19.8 °F 93% 29.81 in 10.0 mi Calm Calm - N/A   Clear
11:35 PM 21.4 °F - 19.8 °F 93% 29.81 in 10.0 mi Calm Calm - N/A   Clear
11:55 PM 20.5 °F - 18.9 °F 93% 29.81 in 10.0 mi Calm Calm - N/A   Clear